User: anonymous   Login
Location: Vancouver
(49.2500°N, 123.1330°W)
Time: 16:15:31
(UTC-08:00)
Language:

Iridium 35 - Orbit

View from above orbital plane
View from above orbital plane
View from above satellite
View from above satellite

Ground track
Ground track

The orbit data is extracted from the following two-line orbital elements,

1 24966U 97056B   15032.26134944  .00000533  00000-0  18308-3 0  1680
2 24966 086.3985 321.0692 0003281 080.8552 279.3015 14.34226341908276
Epoch (UTC): 01 February 2015 06:16:20
Eccentricity: 0.0003281
inclination: 86.3985°
perigee height: 775 km
apogee height: 780 km
right ascension of ascending node: 321.0692°
argument of perigee: 80.8552°
revolutions per day: 14.34226341
mean anomaly at epoch: 279.3015°
orbit number at epoch: 90827

The dashed part of the orbit path shows where the satellite is in the earth's shadow,  

DLR